Regional Weather Roundup
Issued by NWS

Home | Current Version | Previous Version | Text Only | Print | Product List | Glossary Off
Versions: 1 2 3 4 5 6 7 8 9 10 11 12 13 14 15 16 17 18 19 20 21 22 23 24 25 26 27

000
ASUS45 KCYS 161310
RWRWY

WYOMING REGIONAL WEATHER ROUNDUP
NATIONAL WEATHER SERVICE CHEYENNE WY
600 AM MST TUE JAN 16 2018

NOTE:  "FAIR" INDICATES FEW OR NO CLOUDS BELOW 12,000 FEET
WITH NO SIGNIFICANT WEATHER AND/OR OBSTRUCTIONS TO VISIBILITY.

WYZ001-161400-
YELLOWSTONE NATIONAL PARK

CITY           SKY/WX    TMP DP  RH WIND       PRES   REMARKS
LK YELLOWSTONE   N/A    -12 -17  78 CALM      30.35F
W YELLOWSTONE  NOT AVBL

$$
WYZ002>013-054>058-071-098>099-161400-
NORTHERN WYOMING

CITY           SKY/WX    TMP DP  RH WIND       PRES   REMARKS
JACKSON        CLOUDY    -1  -4  87 CALM      30.41S
CODY           LGT SNOW   7   3  85 CALM      30.33  VSB 3/4
GREYBULL       FAIR      -8 -13  78 CALM      30.43F
WORLAND        FAIR      -8 -11  86 SW5       30.40F WCI -19
SHERIDAN       FAIR     -11 -16  78 CALM      30.35F
BUFFALO        FAIR      11  -6  46 S3        30.30F
GILLETTE         N/A    N/A N/A N/A MISG      30.37F
HULETT         FAIR       0  -9  65 MISG      30.41F
NEWCASTLE      FAIR      -9 -18  64 CALM      30.48F

$$
WYZ014>020-022>026-101>103-161400-
CENTRAL WYOMING

CITY           SKY/WX    TMP DP  RH WIND       PRES   REMARKS
BIG PINEY      CLOUDY    16  13  88 CALM      30.39S
PINEDALE       CLOUDY    10   5  79 N7        30.39F WCI   0
DUBOIS         FAIR       9   1  72 NW13      30.28F WCI  -7
LANDER         FAIR      10   7  87 CALM      30.37F
RIVERTON       FAIR      11   6  81 CALM      30.38F
CASPER         FAIR      14   0  53 SW9       30.38F WCI   2
DOUGLAS        FAIR      -7 -12  79 SE5       30.44S WCI -18

$$
WYZ021-027>030-104>119-161400-
SOUTHERN WYOMING

CITY           SKY/WX    TMP DP  RH WIND       PRES   REMARKS
EVANSTON       FAIR      12   9  87 E5        30.35S WCI   4
ROCK SPRINGS   FAIR       8   1  73 SE7       30.39F WCI  -3
DIXON            N/A      5  -6  60 E6        30.45R WCI  -5
RAWLINS        FAIR      -3  -9  75 CALM      30.39F
LARAMIE        FAIR      -3 -11  68 S9        30.34F WCI -19
CHEYENNE       FAIR      -2  -8  76 W7        30.38F WCI -15
TORRINGTON     FAIR      -8 -11  86 E7        30.51F WCI -23

$$




USA.gov is the U.S. government's official web portal to all federal, state and local government web resources and services.